Time,TemperatureF,DewpointF,PressureIn,WindDirection,WindDirectionDegrees,WindSpeedMPH,WindSpeedGustMPH,Humidity,HourlyPrecipIn,Conditions,Clouds,dailyrainin,SoftwareType,DateUTC
2013-10-19 00:00:00,65.7,65.1,29.91,NW,326,0.0,0.0,98,0.01,,OVC060,0.20,VWS V14.01,2013-10-19 04:00:00,
2013-10-19 00:03:00,65.7,65.1,29.91,NW,326,0.0,0.0,98,0.01,,OVC060,0.00,VWS V14.01,2013-10-19 04:03:00,
2013-10-19 00:08:00,65.8,65.2,29.91,NW,326,0.0,0.0,98,0.01,,OVC060,0.00,VWS V14.01,2013-10-19 04:08:00,
2013-10-19 00:13:00,65.8,65.2,29.91,NW,326,0.0,0.0,98,0.01,,OVC060,0.00,VWS V14.01,2013-10-19 04:13:00,
2013-10-19 00:15:00,65.8,65.2,29.91,NW,326,0.0,0.0,98,0.01,,OVC060,0.00,VWS V14.01,2013-10-19 04:15:00,
2013-10-19 00:18:00,65.9,65.3,29.90,NW,326,0.0,0.0,98,0.01,,OVC060,0.00,VWS V14.01,2013-10-19 04:18:00,
2013-10-19 00:23:00,65.9,65.3,29.90,NW,326,0.0,0.0,98,0.01,,OVC060,0.00,VWS V14.01,2013-10-19 04:23:00,
2013-10-19 00:28:00,65.9,65.3,29.90,NW,326,0.0,0.0,98,0.01,,OVC060,0.00,VWS V14.01,2013-10-19 04:28:00,
2013-10-19 00:30:00,65.9,65.3,29.90,NW,326,0.0,0.0,98,0.01,,OVC060,0.00,VWS V14.01,2013-10-19 04:30:00,
2013-10-19 00:33:00,65.9,65.3,29.90,NW,326,0.0,0.0,98,0.01,,OVC060,0.00,VWS V14.01,2013-10-19 04:33:00,
2013-10-19 00:38:00,65.9,65.3,29.90,NW,326,0.0,0.0,98,0.01,,OVC060,0.00,VWS V14.01,2013-10-19 04:38:00,
2013-10-19 00:43:00,65.9,65.3,29.90,NW,326,0.0,0.0,98,0.01,,OVC060,0.00,VWS V14.01,2013-10-19 04:43:00,
2013-10-19 00:45:00,66.0,65.4,29.89,NW,326,0.0,0.0,98,0.01,,OVC060,0.00,VWS V14.01,2013-10-19 04:45:00,
2013-10-19 00:48:00,66.0,65.4,29.89,NW,326,0.0,0.0,98,0.00,,OVC060,0.00,VWS V14.01,2013-10-19 04:48:00,
2013-10-19 00:53:00,66.0,65.4,29.90,NW,326,0.0,0.0,98,0.00,,OVC060,0.00,VWS V14.01,2013-10-19 04:53:00,
2013-10-19 00:58:00,66.1,65.5,29.90,NW,326,0.0,0.0,98,0.00,,OVC060,0.00,VWS V14.01,2013-10-19 04:58:00,
2013-10-19 01:00:00,66.1,65.5,29.90,NW,326,0.0,0.0,98,0.00,,OVC060,0.00,VWS V14.01,2013-10-19 05:00:00,
2013-10-19 01:03:00,66.1,65.5,29.90,NW,326,0.0,0.0,98,0.00,,OVC060,0.00,VWS V14.01,2013-10-19 05:03:00,
2013-10-19 01:08:00,66.1,65.5,29.90,NW,326,0.0,0.0,98,0.00,,OVC060,0.00,VWS V14.01,2013-10-19 05:08:00,
2013-10-19 01:13:00,66.2,65.6,29.90,NW,326,0.0,0.0,98,0.00,,OVC060,0.00,VWS V14.01,2013-10-19 05:13:00,
2013-10-19 01:15:00,66.2,65.6,29.90,NW,326,0.0,0.0,98,0.00,,OVC060,0.00,VWS V14.01,2013-10-19 05:15:00,
2013-10-19 01:18:00,66.3,65.7,29.89,NW,326,0.0,0.0,98,0.00,,OVC060,0.00,VWS V14.01,2013-10-19 05:18:00,
2013-10-19 01:23:00,66.3,65.7,29.89,NW,326,0.0,0.0,98,0.00,,OVC060,0.00,VWS V14.01,2013-10-19 05:23:00,
2013-10-19 01:28:00,66.3,65.7,29.89,NW,326,0.0,0.0,98,0.00,,OVC060,0.00,VWS V14.01,2013-10-19 05:28:00,
2013-10-19 01:30:00,66.3,65.7,29.89,NW,326,0.0,0.0,98,0.00,,OVC060,0.00,VWS V14.01,2013-10-19 05:30:00,
2013-10-19 01:33:00,66.3,65.7,29.89,NW,326,0.0,0.0,98,0.00,,OVC060,0.00,VWS V14.01,2013-10-19 05:33:00,
2013-10-19 01:38:00,66.3,65.7,29.89,NW,326,0.0,0.0,98,0.00,,OVC060,0.00,VWS V14.01,2013-10-19 05:38:00,
2013-10-19 01:43:00,66.4,65.8,29.89,NW,326,0.0,0.0,98,0.00,,OVC060,0.00,VWS V14.01,2013-10-19 05:43:00,
2013-10-19 01:45:00,66.3,65.7,29.89,NW,326,0.0,0.0,98,0.00,,OVC060,0.00,VWS V14.01,2013-10-19 05:45:00,
2013-10-19 01:48:00,66.4,65.8,29.89,NW,326,0.0,0.0,98,0.00,,OVC060,0.00,VWS V14.01,2013-10-19 05:48:00,
2013-10-19 01:53:00,66.5,65.9,29.89,NW,326,0.0,0.0,98,0.00,,OVC060,0.00,VWS V14.01,2013-10-19 05:53:00,
2013-10-19 01:58:00,66.5,65.9,29.88,NW,326,0.0,0.0,98,0.00,,OVC060,0.00,VWS V14.01,2013-10-19 05:58:00,
2013-10-19 02:00:00,66.5,65.9,29.89,NW,326,0.0,0.0,98,0.00,,OVC060,0.00,VWS V14.01,2013-10-19 06:00:00,
2013-10-19 02:04:00,66.5,65.9,29.89,NW,326,0.0,0.0,98,0.00,,OVC060,0.00,VWS V14.01,2013-10-19 06:04:00,
2013-10-19 02:09:00,66.6,66.0,29.89,NW,326,0.0,0.0,98,0.00,,OVC060,0.00,VWS V14.01,2013-10-19 06:09:00,
2013-10-19 02:14:00,66.6,66.0,29.89,NW,326,0.0,0.0,98,0.00,,OVC060,0.00,VWS V14.01,2013-10-19 06:14:00,
2013-10-19 02:15:00,66.6,66.0,29.89,NW,326,0.0,0.0,98,0.00,,OVC060,0.00,VWS V14.01,2013-10-19 06:15:00,
2013-10-19 02:19:00,66.7,66.1,29.89,NW,326,0.0,0.0,98,0.00,,OVC060,0.00,VWS V14.01,2013-10-19 06:19:00,
2013-10-19 02:24:00,66.7,66.1,29.89,NW,326,0.0,0.0,98,0.00,,OVC060,0.00,VWS V14.01,2013-10-19 06:24:00,
2013-10-19 02:29:00,66.7,66.1,29.89,NW,326,0.0,0.0,98,0.00,,OVC060,0.00,VWS V14.01,2013-10-19 06:29:00,
2013-10-19 02:30:00,66.7,66.1,29.89,NW,326,0.0,0.0,98,0.00,,OVC060,0.00,VWS V14.01,2013-10-19 06:30:00,
2013-10-19 02:34:00,66.7,66.1,29.89,NW,326,0.0,0.0,98,0.00,,OVC060,0.00,VWS V14.01,2013-10-19 06:34:00,
2013-10-19 02:39:00,66.7,66.1,29.89,NW,326,0.0,0.0,98,0.00,,OVC060,0.00,VWS V14.01,2013-10-19 06:39:00,
2013-10-19 02:44:00,66.8,66.2,29.89,NW,326,0.0,0.0,98,0.00,,OVC060,0.00,VWS V14.01,2013-10-19 06:44:00,
2013-10-19 02:45:00,66.8,66.2,29.89,NW,326,0.0,0.0,98,0.00,,OVC060,0.00,VWS V14.01,2013-10-19 06:45:00,
2013-10-19 02:49:00,66.8,66.2,29.88,NW,326,0.0,0.0,98,0.00,,OVC060,0.00,VWS V14.01,2013-10-19 06:49:00,
2013-10-19 02:54:00,66.8,66.2,29.88,NW,326,0.0,0.0,98,0.00,,OVC060,0.00,VWS V14.01,2013-10-19 06:54:00,
2013-10-19 02:59:00,66.9,66.3,29.88,NW,326,0.0,0.0,98,0.00,,OVC060,0.00,VWS V14.01,2013-10-19 06:59:00,
2013-10-19 03:00:00,66.8,66.2,29.88,NW,326,0.0,0.0,98,0.00,,OVC060,0.00,VWS V14.01,2013-10-19 07:00:00,
2013-10-19 03:04:00,66.9,66.3,29.88,NW,326,0.0,0.0,98,0.00,,OVC060,0.00,VWS V14.01,2013-10-19 07:04:00,
2013-10-19 03:09:00,66.9,66.3,29.88,NW,326,0.0,0.0,98,0.00,,OVC060,0.00,VWS V14.01,2013-10-19 07:09:00,
2013-10-19 03:14:00,66.9,66.3,29.87,NW,326,0.0,0.0,98,0.00,,OVC060,0.00,VWS V14.01,2013-10-19 07:14:00,
2013-10-19 03:15:00,66.9,66.3,29.87,NW,326,0.0,0.0,98,0.00,,OVC060,0.00,VWS V14.01,2013-10-19 07:15:00,
2013-10-19 03:19:00,66.8,66.2,29.87,NW,326,0.0,0.0,98,0.00,,OVC060,0.00,VWS V14.01,2013-10-19 07:19:00,
2013-10-19 03:24:00,66.8,66.2,29.87,NW,326,0.0,0.0,98,0.00,,OVC060,0.00,VWS V14.01,2013-10-19 07:24:00,
2013-10-19 03:29:00,66.9,66.3,29.87,NW,326,0.0,0.0,98,0.00,,OVC060,0.00,VWS V14.01,2013-10-19 07:29:00,
2013-10-19 03:30:00,66.8,66.2,29.87,NW,326,0.0,0.0,98,0.00,,OVC060,0.00,VWS V14.01,2013-10-19 07:30:00,
2013-10-19 03:34:00,66.8,66.2,29.87,NW,326,0.0,0.0,98,0.00,,OVC060,0.00,VWS V14.01,2013-10-19 07:34:00,
2013-10-19 03:39:00,66.9,66.3,29.87,NW,326,0.0,0.0,98,0.00,,OVC060,0.00,VWS V14.01,2013-10-19 07:39:00,
2013-10-19 03:44:00,66.9,66.3,29.88,NW,326,0.0,0.0,98,0.00,,OVC060,0.00,VWS V14.01,2013-10-19 07:44:00,
2013-10-19 03:45:00,66.9,66.3,29.88,NW,326,0.0,0.0,98,0.00,,OVC060,0.00,VWS V14.01,2013-10-19 07:45:00,
2013-10-19 03:49:00,66.9,66.3,29.88,NW,326,0.0,0.0,98,0.00,,OVC060,0.00,VWS V14.01,2013-10-19 07:49:00,
2013-10-19 03:54:00,66.9,66.3,29.88,NW,326,0.0,0.0,98,0.00,,OVC060,0.00,VWS V14.01,2013-10-19 07:54:00,
2013-10-19 03:59:00,66.8,66.2,29.88,NW,326,0.0,0.0,98,0.00,,OVC060,0.00,VWS V14.01,2013-10-19 07:59:00,
2013-10-19 04:00:00,66.8,66.2,29.88,NW,326,0.0,0.0,98,0.00,,OVC060,0.00,VWS V14.01,2013-10-19 08:00:00,
2013-10-19 04:04:00,66.7,66.1,29.88,NW,326,0.0,0.0,98,0.00,,OVC060,0.00,VWS V14.01,2013-10-19 08:04:00,
2013-10-19 04:09:00,66.5,65.9,29.88,NW,326,0.0,1.0,98,0.00,,OVC060,0.00,VWS V14.01,2013-10-19 08:09:00,
2013-10-19 04:14:00,66.3,65.7,29.87,NW,326,0.0,1.0,98,0.00,,OVC060,0.00,VWS V14.01,2013-10-19 08:14:00,
2013-10-19 04:15:00,66.3,65.7,29.87,NW,326,0.0,1.0,98,0.00,,OVC060,0.00,VWS V14.01,2013-10-19 08:15:00,
2013-10-19 04:19:00,66.2,65.6,29.87,NW,326,0.0,0.0,98,0.00,,OVC060,0.00,VWS V14.01,2013-10-19 08:19:00,
2013-10-19 04:24:00,66.1,65.5,29.87,NW,326,0.0,0.0,98,0.00,,OVC060,0.00,VWS V14.01,2013-10-19 08:24:00,
2013-10-19 04:29:00,66.0,65.4,29.88,NW,326,0.0,0.0,98,0.00,,OVC060,0.00,VWS V14.01,2013-10-19 08:29:00,
2013-10-19 04:30:00,66.0,65.4,29.88,NW,326,0.0,0.0,98,0.00,,OVC060,0.00,VWS V14.01,2013-10-19 08:30:00,
2013-10-19 04:34:00,65.9,65.3,29.88,NW,326,0.0,0.0,98,0.00,,OVC060,0.00,VWS V14.01,2013-10-19 08:34:00,
2013-10-19 04:39:00,65.9,65.3,29.88,NW,326,0.0,0.0,98,0.00,,OVC060,0.00,VWS V14.01,2013-10-19 08:39:00,
2013-10-19 04:44:00,65.8,65.2,29.88,NW,326,0.0,0.0,98,0.00,,OVC060,0.00,VWS V14.01,2013-10-19 08:44:00,
2013-10-19 04:45:00,65.8,65.2,29.88,NW,326,0.0,1.0,98,0.00,,OVC060,0.00,VWS V14.01,2013-10-19 08:45:00,
2013-10-19 04:49:00,65.7,65.1,29.88,NW,326,0.0,0.0,98,0.00,,OVC060,0.00,VWS V14.01,2013-10-19 08:49:00,
2013-10-19 04:54:00,65.6,65.0,29.88,NW,326,0.0,0.0,98,0.00,,OVC060,0.00,VWS V14.01,2013-10-19 08:54:00,
2013-10-19 04:59:00,65.4,64.8,29.88,NW,326,0.0,1.0,98,0.00,,OVC060,0.00,VWS V14.01,2013-10-19 08:59:00,
2013-10-19 05:00:00,65.4,64.8,29.88,NW,326,0.0,1.0,98,0.00,,OVC060,0.00,VWS V14.01,2013-10-19 09:00:00,
2013-10-19 05:05:00,65.3,64.7,29.88,NW,326,0.0,0.0,98,0.00,,OVC060,0.00,VWS V14.01,2013-10-19 09:05:00,
2013-10-19 05:10:00,65.3,64.7,29.88,NW,326,0.0,0.0,98,0.00,,OVC060,0.00,VWS V14.01,2013-10-19 09:10:00,
2013-10-19 05:15:00,65.2,64.6,29.88,NW,326,0.0,0.0,98,0.01,,OVC060,0.01,VWS V14.01,2013-10-19 09:15:00,
2013-10-19 05:20:00,65.2,64.6,29.88,NW,326,0.0,0.0,98,0.01,,OVC060,0.01,VWS V14.01,2013-10-19 09:20:00,
2013-10-19 05:25:00,65.1,64.5,29.88,NW,326,0.0,0.0,98,0.01,,OVC060,0.01,VWS V14.01,2013-10-19 09:25:00,
2013-10-19 05:30:00,65.1,64.5,29.87,NW,326,0.0,0.0,98,0.01,,OVC060,0.01,VWS V14.01,2013-10-19 09:30:00,
2013-10-19 05:35:00,65.1,64.5,29.88,NW,326,0.0,0.0,98,0.01,,OVC060,0.01,VWS V14.01,2013-10-19 09:35:00,
2013-10-19 05:40:00,65.1,64.5,29.88,NW,326,1.0,1.0,98,0.01,,OVC060,0.01,VWS V14.01,2013-10-19 09:40:00,
2013-10-19 05:45:00,65.0,64.4,29.88,NW,326,0.0,2.0,98,0.01,,OVC060,0.01,VWS V14.01,2013-10-19 09:45:00,
2013-10-19 05:50:00,65.0,64.4,29.87,NW,326,0.0,0.0,98,0.01,,OVC060,0.01,VWS V14.01,2013-10-19 09:50:00,
2013-10-19 05:55:00,65.0,64.4,29.87,NW,326,0.0,0.0,98,0.01,,OVC060,0.01,VWS V14.01,2013-10-19 09:55:00,
2013-10-19 06:00:00,64.9,64.3,29.88,NW,326,0.0,0.0,98,0.01,,OVC060,0.01,VWS V14.01,2013-10-19 10:00:00,
2013-10-19 06:05:00,64.9,64.3,29.88,NW,326,0.0,0.0,98,0.01,,OVC060,0.01,VWS V14.01,2013-10-19 10:05:00,
2013-10-19 06:10:00,64.9,64.3,29.88,NW,326,0.0,0.0,98,0.01,,OVC060,0.01,VWS V14.01,2013-10-19 10:10:00,
2013-10-19 06:15:00,64.9,64.3,29.88,NW,326,0.0,0.0,98,0.01,,OVC060,0.01,VWS V14.01,2013-10-19 10:15:00,
2013-10-19 06:20:00,64.9,64.3,29.88,NW,326,0.0,0.0,98,0.00,,OVC060,0.01,VWS V14.01,2013-10-19 10:20:00,
2013-10-19 06:25:00,64.9,64.3,29.88,NW,326,0.0,0.0,98,0.00,,OVC060,0.01,VWS V14.01,2013-10-19 10:25:00,
2013-10-19 06:30:00,64.9,64.3,29.88,NW,326,0.0,0.0,98,0.00,,OVC060,0.01,VWS V14.01,2013-10-19 10:30:00,
2013-10-19 06:35:00,64.9,64.3,29.87,NW,326,0.0,0.0,98,0.00,,OVC060,0.01,VWS V14.01,2013-10-19 10:35:00,
2013-10-19 06:40:00,64.9,64.3,29.87,NW,326,0.0,0.0,98,0.00,,OVC060,0.01,VWS V14.01,2013-10-19 10:40:00,
2013-10-19 06:45:00,65.0,64.4,29.88,NW,326,0.0,0.0,98,0.00,,OVC060,0.01,VWS V14.01,2013-10-19 10:45:00,
2013-10-19 06:50:00,64.9,64.3,29.87,NW,326,0.0,0.0,98,0.00,,OVC060,0.01,VWS V14.01,2013-10-19 10:50:00,
2013-10-19 06:55:00,64.9,64.3,29.87,NW,326,0.0,0.0,98,0.00,,OVC060,0.01,VWS V14.01,2013-10-19 10:55:00,
2013-10-19 07:00:00,64.9,64.3,29.87,NW,326,0.0,0.0,98,0.00,,OVC060,0.01,VWS V14.01,2013-10-19 11:00:00,
2013-10-19 07:05:00,64.9,64.3,29.88,NW,326,0.0,0.0,98,0.00,,OVC060,0.01,VWS V14.01,2013-10-19 11:05:00,
2013-10-19 07:10:00,65.0,64.4,29.87,NW,326,0.0,0.0,98,0.00,,OVC060,0.01,VWS V14.01,2013-10-19 11:10:00,
2013-10-19 07:15:00,65.0,64.4,29.88,NW,326,0.0,0.0,98,0.00,,OVC060,0.01,VWS V14.01,2013-10-19 11:15:00,
2013-10-19 07:20:00,65.0,64.4,29.88,NW,326,0.0,0.0,98,0.00,,OVC060,0.01,VWS V14.01,2013-10-19 11:20:00,
2013-10-19 07:25:00,65.1,64.5,29.88,NW,326,0.0,0.0,98,0.00,,OVC060,0.01,VWS V14.01,2013-10-19 11:25:00,
2013-10-19 07:30:00,65.1,64.5,29.88,NW,326,0.0,0.0,98,0.00,,OVC060,0.01,VWS V14.01,2013-10-19 11:30:00,
2013-10-19 07:35:00,65.0,64.4,29.88,NW,326,0.0,0.0,98,0.00,,OVC060,0.01,VWS V14.01,2013-10-19 11:35:00,
2013-10-19 07:40:00,65.0,64.4,29.88,NW,326,0.0,0.0,98,0.00,,OVC060,0.01,VWS V14.01,2013-10-19 11:40:00,
2013-10-19 07:45:00,64.9,64.3,29.88,NW,326,0.0,0.0,98,0.00,,OVC060,0.01,VWS V14.01,2013-10-19 11:45:00,
2013-10-19 07:50:00,65.0,64.4,29.88,NW,326,0.0,0.0,98,0.00,,OVC060,0.01,VWS V14.01,2013-10-19 11:50:00,
2013-10-19 07:55:00,65.0,64.7,29.88,NW,326,0.0,0.0,99,0.00,,OVC060,0.01,VWS V14.01,2013-10-19 11:55:00,
2013-10-19 08:00:00,65.0,64.4,29.88,NW,326,0.0,0.0,98,0.00,,OVC060,0.01,VWS V14.01,2013-10-19 12:00:00,
2013-10-19 08:06:00,65.1,64.5,29.88,NW,326,0.0,0.0,98,0.00,,OVC060,0.01,VWS V14.01,2013-10-19 12:06:00,
2013-10-19 08:11:00,65.2,64.6,29.88,NW,326,0.0,0.0,98,0.00,,OVC060,0.01,VWS V14.01,2013-10-19 12:11:00,
2013-10-19 08:15:00,65.3,64.7,29.88,NW,326,0.0,0.0,98,0.00,,OVC060,0.01,VWS V14.01,2013-10-19 12:15:00,
2013-10-19 08:16:00,65.3,64.7,29.88,NW,326,0.0,0.0,98,0.00,,OVC060,0.01,VWS V14.01,2013-10-19 12:16:00,
2013-10-19 08:21:00,65.4,65.1,29.88,NW,326,0.0,0.0,99,0.00,,OVC060,0.01,VWS V14.01,2013-10-19 12:21:00,
2013-10-19 08:26:00,65.6,65.3,29.88,NW,326,0.0,0.0,99,0.00,,OVC060,0.01,VWS V14.01,2013-10-19 12:26:00,
2013-10-19 08:30:00,65.6,65.3,29.88,NW,326,0.0,0.0,99,0.00,,OVC060,0.01,VWS V14.01,2013-10-19 12:30:00,
2013-10-19 08:31:00,65.7,65.1,29.88,NW,326,0.0,0.0,98,0.00,,OVC060,0.01,VWS V14.01,2013-10-19 12:31:00,
2013-10-19 08:36:00,65.8,65.2,29.89,NW,326,0.0,0.0,98,0.00,,OVC060,0.01,VWS V14.01,2013-10-19 12:36:00,
2013-10-19 08:41:00,65.9,65.3,29.89,NW,326,0.0,0.0,98,0.00,,OVC060,0.01,VWS V14.01,2013-10-19 12:41:00,
2013-10-19 08:45:00,66.0,65.7,29.89,NW,326,0.0,0.0,99,0.00,,OVC060,0.01,VWS V14.01,2013-10-19 12:45:00,
2013-10-19 08:46:00,66.0,65.7,29.89,NW,326,0.0,0.0,99,0.00,,OVC060,0.01,VWS V14.01,2013-10-19 12:46:00,
2013-10-19 08:51:00,66.2,65.9,29.89,NW,326,0.0,0.0,99,0.00,,OVC060,0.01,VWS V14.01,2013-10-19 12:51:00,
2013-10-19 08:56:00,66.4,66.1,29.89,NW,326,0.0,0.0,99,0.00,,OVC060,0.01,VWS V14.01,2013-10-19 12:56:00,
2013-10-19 09:00:00,66.6,66.3,29.89,NW,326,0.0,0.0,99,0.00,,OVC060,0.01,VWS V14.01,2013-10-19 13:00:00,
2013-10-19 09:01:00,66.6,66.3,29.89,NW,326,0.0,0.0,99,0.00,,OVC060,0.01,VWS V14.01,2013-10-19 13:01:00,
2013-10-19 09:06:00,67.0,66.7,29.89,NW,326,0.0,0.0,99,0.00,,OVC060,0.01,VWS V14.01,2013-10-19 13:06:00,
2013-10-19 09:11:00,67.3,67.0,29.90,NW,326,0.0,0.0,99,0.00,,OVC060,0.01,VWS V14.01,2013-10-19 13:11:00,
2013-10-19 09:15:00,67.7,67.4,29.90,NW,326,0.0,0.0,99,0.00,,OVC060,0.01,VWS V14.01,2013-10-19 13:15:00,
2013-10-19 09:16:00,67.7,67.4,29.90,NW,326,0.0,0.0,99,0.00,,OVC060,0.01,VWS V14.01,2013-10-19 13:16:00,
2013-10-19 09:21:00,68.0,67.7,29.90,NW,326,0.0,0.0,99,0.00,,OVC060,0.01,VWS V14.01,2013-10-19 13:21:00,
2013-10-19 09:26:00,68.3,68.0,29.90,NW,326,0.0,0.0,99,0.00,,OVC060,0.01,VWS V14.01,2013-10-19 13:26:00,
2013-10-19 09:30:00,68.5,68.2,29.90,NW,326,0.0,0.0,99,0.00,,OVC060,0.01,VWS V14.01,2013-10-19 13:30:00,
2013-10-19 09:31:00,68.5,68.2,29.90,NW,326,0.0,0.0,99,0.00,,OVC060,0.01,VWS V14.01,2013-10-19 13:31:00,
2013-10-19 09:36:00,68.6,68.3,29.89,NW,326,0.0,0.0,99,0.00,,OVC060,0.01,VWS V14.01,2013-10-19 13:36:00,
2013-10-19 09:41:00,68.9,68.6,29.89,NW,326,0.0,0.0,99,0.00,,OVC060,0.01,VWS V14.01,2013-10-19 13:41:00,
2013-10-19 09:45:00,69.0,68.7,29.89,NW,326,0.0,0.0,99,0.00,,OVC060,0.01,VWS V14.01,2013-10-19 13:45:00,
2013-10-19 09:46:00,69.0,68.7,29.89,NW,326,0.0,0.0,99,0.00,,OVC060,0.01,VWS V14.01,2013-10-19 13:46:00,
2013-10-19 09:51:00,69.1,68.8,29.89,NW,326,0.0,0.0,99,0.00,,OVC060,0.01,VWS V14.01,2013-10-19 13:51:00,
2013-10-19 09:56:00,69.2,68.9,29.89,NW,326,0.0,0.0,99,0.00,,OVC060,0.01,VWS V14.01,2013-10-19 13:56:00,
2013-10-19 10:00:00,69.3,69.0,29.89,NW,326,0.0,0.0,99,0.00,,OVC060,0.01,VWS V14.01,2013-10-19 14:00:00,
2013-10-19 10:01:00,69.3,69.0,29.89,NW,326,0.0,0.0,99,0.00,,OVC060,0.01,VWS V14.01,2013-10-19 14:01:00,
2013-10-19 10:06:00,69.5,69.2,29.89,NW,326,0.0,0.0,99,0.00,,OVC060,0.01,VWS V14.01,2013-10-19 14:06:00,
2013-10-19 10:11:00,69.7,69.4,29.89,NW,326,0.0,0.0,99,0.00,,OVC060,0.01,VWS V14.01,2013-10-19 14:11:00,
2013-10-19 10:15:00,69.9,69.6,29.89,NW,326,0.0,0.0,99,0.00,,OVC060,0.01,VWS V14.01,2013-10-19 14:15:00,
2013-10-19 10:16:00,70.0,69.7,29.89,NW,326,0.0,0.0,99,0.00,,OVC060,0.01,VWS V14.01,2013-10-19 14:16:00,
2013-10-19 10:21:00,70.3,70.0,29.89,NW,326,0.0,0.0,99,0.00,,OVC060,0.01,VWS V14.01,2013-10-19 14:21:00,
2013-10-19 10:26:00,70.3,70.0,29.89,NW,326,0.0,0.0,99,0.00,,OVC060,0.01,VWS V14.01,2013-10-19 14:26:00,
2013-10-19 10:30:00,70.5,70.2,29.89,NW,326,0.0,0.0,99,0.00,,OVC060,0.01,VWS V14.01,2013-10-19 14:30:00,
2013-10-19 10:31:00,70.5,70.2,29.89,NW,326,0.0,0.0,99,0.00,,OVC060,0.01,VWS V14.01,2013-10-19 14:31:00,
2013-10-19 10:36:00,70.7,70.4,29.89,SW,228,0.0,2.0,99,0.00,,OVC060,0.01,VWS V14.01,2013-10-19 14:36:00,
2013-10-19 10:41:00,70.8,70.2,29.89,SE,146,0.0,4.0,98,0.00,,OVC060,0.01,VWS V14.01,2013-10-19 14:41:00,
2013-10-19 10:45:00,70.8,70.2,29.89,NNW,335,1.0,4.0,98,0.00,,OVC060,0.01,VWS V14.01,2013-10-19 14:45:00,
2013-10-19 10:46:00,70.8,70.2,29.89,NNW,340,0.0,4.0,98,0.00,,OVC060,0.01,VWS V14.01,2013-10-19 14:46:00,
2013-10-19 10:51:00,70.9,70.0,29.89,WSW,238,0.0,4.0,97,0.00,,OVC060,0.01,VWS V14.01,2013-10-19 14:51:00,
2013-10-19 10:56:00,71.0,69.8,29.89,SSE,149,0.0,4.0,96,0.00,,OVC060,0.01,VWS V14.01,2013-10-19 14:56:00,
2013-10-19 11:00:00,71.0,69.5,29.89,West,265,0.0,4.0,95,0.00,,OVC060,0.01,VWS V14.01,2013-10-19 15:00:00,
2013-10-19 11:01:00,71.1,69.6,29.89,West,277,0.0,2.0,95,0.00,,OVC060,0.01,VWS V14.01,2013-10-19 15:01:00,
2013-10-19 11:06:00,71.4,69.6,29.89,NW,314,0.0,2.0,94,0.00,,OVC060,0.01,VWS V14.01,2013-10-19 15:06:00,
2013-10-19 11:12:00,71.7,69.3,29.89,SSE,160,0.0,4.0,92,0.00,,OVC060,0.01,VWS V14.01,2013-10-19 15:12:00,
2013-10-19 11:15:00,71.9,69.4,29.89,WNW,299,0.0,4.0,92,0.00,,OVC060,0.01,VWS V14.01,2013-10-19 15:15:00,
2013-10-19 11:17:00,72.0,69.6,29.90,WNW,299,0.0,0.0,92,0.00,,OVC060,0.01,VWS V14.01,2013-10-19 15:17:00,
2013-10-19 11:22:00,72.2,69.4,29.89,WNW,300,0.0,2.0,91,0.00,,OVC060,0.01,VWS V14.01,2013-10-19 15:22:00,
2013-10-19 11:27:00,72.5,69.7,29.89,NE,40,0.0,3.0,91,0.00,,OVC060,0.01,VWS V14.01,2013-10-19 15:27:00,
2013-10-19 11:30:00,72.7,69.3,29.89,NNE,28,0.0,3.0,89,0.00,,OVC060,0.01,VWS V14.01,2013-10-19 15:30:00,
2013-10-19 11:32:00,72.8,69.7,29.89,NNE,28,0.0,0.0,90,0.00,,OVC060,0.01,VWS V14.01,2013-10-19 15:32:00,
2013-10-19 11:37:00,73.2,69.8,29.89,NNW,334,3.0,4.0,89,0.00,,OVC060,0.01,VWS V14.01,2013-10-19 15:37:00,
2013-10-19 11:42:00,73.5,69.7,29.88,NW,315,0.0,4.0,88,0.00,,OVC060,0.01,VWS V14.01,2013-10-19 15:42:00,
2013-10-19 11:45:00,73.6,69.8,29.88,NW,316,0.0,4.0,88,0.00,,OVC060,0.01,VWS V14.01,2013-10-19 15:45:00,
2013-10-19 11:47:00,73.6,69.5,29.88,NW,316,0.0,0.0,87,0.00,,OVC060,0.01,VWS V14.01,2013-10-19 15:47:00,
2013-10-19 11:52:00,73.6,69.2,29.88,SE,127,0.0,4.0,86,0.00,,OVC060,0.01,VWS V14.01,2013-10-19 15:52:00,
2013-10-19 11:57:00,73.8,69.3,29.88,South,178,0.0,5.0,86,0.00,,OVC060,0.01,VWS V14.01,2013-10-19 15:57:00,
2013-10-19 12:00:00,74.0,69.6,29.88,South,178,0.0,5.0,86,0.00,,OVC060,0.01,VWS V14.01,2013-10-19 16:00:00,
2013-10-19 12:02:00,74.1,69.7,29.88,South,187,3.0,4.0,86,0.00,,OVC060,0.01,VWS V14.01,2013-10-19 16:02:00,
2013-10-19 12:07:00,74.5,69.7,29.88,NNW,342,0.0,4.0,85,0.00,,OVC060,0.01,VWS V14.01,2013-10-19 16:07:00,
2013-10-19 12:12:00,74.8,69.3,29.87,NNW,345,0.0,4.0,83,0.00,,OVC060,0.01,VWS V14.01,2013-10-19 16:12:00,
2013-10-19 12:15:00,75.0,69.8,29.87,NNW,348,1.0,4.0,84,0.00,,OVC060,0.01,VWS V14.01,2013-10-19 16:15:00,
2013-10-19 12:17:00,75.0,69.8,29.87,West,269,1.0,1.0,84,0.00,,OVC060,0.01,VWS V14.01,2013-10-19 16:17:00,
2013-10-19 12:22:00,75.1,69.6,29.87,NW,308,0.0,4.0,83,0.00,,OVC060,0.01,VWS V14.01,2013-10-19 16:22:00,
2013-10-19 12:27:00,75.2,69.0,29.87,South,169,0.0,4.0,81,0.00,,OVC060,0.01,VWS V14.01,2013-10-19 16:27:00,
2013-10-19 12:30:00,75.2,68.6,29.87,WNW,288,1.0,4.0,80,0.00,,OVC060,0.01,VWS V14.01,2013-10-19 16:30:00,
2013-10-19 12:32:00,75.3,68.7,29.86,WNW,288,0.0,1.0,80,0.00,,OVC060,0.01,VWS V14.01,2013-10-19 16:32:00,
2013-10-19 12:37:00,75.5,69.3,29.86,NW,308,0.0,3.0,81,0.00,,OVC060,0.01,VWS V14.01,2013-10-19 16:37:00,
2013-10-19 12:42:00,75.7,69.1,29.86,NW,309,0.0,3.0,80,0.00,,OVC060,0.01,VWS V14.01,2013-10-19 16:42:00,
2013-10-19 12:45:00,75.7,68.4,29.86,South,169,0.0,3.0,78,0.00,,OVC060,0.01,VWS V14.01,2013-10-19 16:45:00,
2013-10-19 12:47:00,75.7,68.7,29.86,South,169,0.0,0.0,79,0.00,,OVC060,0.01,VWS V14.01,2013-10-19 16:47:00,
2013-10-19 12:52:00,75.8,68.8,29.86,SSE,168,0.0,0.0,79,0.00,,OVC060,0.01,VWS V14.01,2013-10-19 16:52:00,
2013-10-19 12:57:00,75.8,68.8,29.86,SW,227,0.0,1.0,79,0.00,,OVC060,0.01,VWS V14.01,2013-10-19 16:57:00,
2013-10-19 13:00:00,75.9,68.6,29.86,ENE,65,1.0,1.0,78,0.00,,OVC060,0.01,VWS V14.01,2013-10-19 17:00:00,
2013-10-19 13:02:00,76.0,68.7,29.86,NW,315,0.0,4.0,78,0.00,,OVC060,0.01,VWS V14.01,2013-10-19 17:02:00,
2013-10-19 13:07:00,76.3,68.6,29.86,NW,317,0.0,4.0,77,0.00,,OVC060,0.01,VWS V14.01,2013-10-19 17:07:00,
2013-10-19 13:12:00,76.5,68.8,29.86,NW,318,0.0,4.0,77,0.00,,OVC060,0.01,VWS V14.01,2013-10-19 17:12:00,
2013-10-19 13:15:00,76.7,68.6,29.85,NW,318,0.0,4.0,76,0.00,,OVC060,0.01,VWS V14.01,2013-10-19 17:15:00,
2013-10-19 13:17:00,76.8,68.3,29.85,NNW,329,1.0,1.0,75,0.00,,OVC060,0.01,VWS V14.01,2013-10-19 17:17:00,
2013-10-19 13:22:00,77.1,69.0,29.85,South,176,0.0,2.0,76,0.00,,OVC060,0.01,VWS V14.01,2013-10-19 17:22:00,
2013-10-19 13:27:00,77.0,67.3,29.85,SSW,206,0.0,3.0,72,0.00,,OVC060,0.01,VWS V14.01,2013-10-19 17:27:00,
2013-10-19 13:30:00,76.9,68.0,29.85,SSW,207,0.0,3.0,74,0.00,,OVC060,0.01,VWS V14.01,2013-10-19 17:30:00,
2013-10-19 13:32:00,76.9,67.2,29.85,WNW,302,0.0,3.0,72,0.00,,OVC060,0.01,VWS V14.01,2013-10-19 17:32:00,
2013-10-19 13:37:00,76.9,68.4,29.84,SSE,165,0.0,5.0,75,0.00,,OVC060,0.01,VWS V14.01,2013-10-19 17:37:00,
2013-10-19 13:42:00,77.1,67.8,29.84,SSW,198,0.0,5.0,73,0.00,,OVC060,0.01,VWS V14.01,2013-10-19 17:42:00,
2013-10-19 13:45:00,77.3,68.4,29.84,SW,233,0.0,5.0,74,0.00,,OVC060,0.01,VWS V14.01,2013-10-19 17:45:00,
2013-10-19 13:47:00,77.5,68.6,29.83,NNW,330,0.0,2.0,74,0.00,,OVC060,0.01,VWS V14.01,2013-10-19 17:47:00,
2013-10-19 13:52:00,77.7,68.4,29.83,NNW,330,0.0,2.0,73,0.00,,OVC060,0.01,VWS V14.01,2013-10-19 17:52:00,
2013-10-19 13:57:00,77.7,68.4,29.83,WNW,300,0.0,2.0,73,0.00,,OVC060,0.01,VWS V14.01,2013-10-19 17:57:00,
2013-10-19 14:00:00,77.7,68.4,29.83,WNW,299,0.0,2.0,73,0.00,,OVC060,0.01,VWS V14.01,2013-10-19 18:00:00,
2013-10-19 14:02:00,77.7,68.8,29.83,WNW,300,0.0,0.0,74,0.00,,OVC060,0.01,VWS V14.01,2013-10-19 18:02:00,
2013-10-19 14:07:00,77.9,68.6,29.83,NW,313,0.0,0.0,73,0.00,,OVC060,0.01,VWS V14.01,2013-10-19 18:07:00,
2013-10-19 14:13:00,77.9,67.8,29.83,NW,319,1.0,5.0,71,0.00,,OVC060,0.01,VWS V14.01,2013-10-19 18:13:00,
2013-10-19 14:15:00,77.9,68.6,29.83,NW,320,0.0,5.0,73,0.00,,OVC060,0.01,VWS V14.01,2013-10-19 18:15:00,
2013-10-19 14:18:00,77.9,68.6,29.83,SSW,192,0.0,0.0,73,0.00,,OVC060,0.01,VWS V14.01,2013-10-19 18:18:00,
2013-10-19 14:23:00,77.9,68.2,29.83,SW,234,0.0,1.0,72,0.00,,OVC060,0.01,VWS V14.01,2013-10-19 18:23:00,
2013-10-19 14:28:00,77.7,67.6,29.83,WNW,300,0.0,2.0,71,0.00,,OVC060,0.01,VWS V14.01,2013-10-19 18:28:00,
2013-10-19 14:30:00,77.6,67.9,29.82,WNW,301,0.0,2.0,72,0.00,,OVC060,0.01,VWS V14.01,2013-10-19 18:30:00,
2013-10-19 14:33:00,77.6,68.3,29.82,NW,318,1.0,4.0,73,0.00,,OVC060,0.01,VWS V14.01,2013-10-19 18:33:00,
2013-10-19 14:38:00,77.4,68.1,29.82,NW,315,0.0,4.0,73,0.00,,OVC060,0.01,VWS V14.01,2013-10-19 18:38:00,
2013-10-19 14:43:00,77.5,68.2,29.82,West,264,0.0,4.0,73,0.00,,OVC060,0.01,VWS V14.01,2013-10-19 18:43:00,
2013-10-19 14:45:00,77.5,68.2,29.82,West,268,0.0,4.0,73,0.00,,OVC060,0.01,VWS V14.01,2013-10-19 18:45:00,
2013-10-19 14:48:00,77.6,68.7,29.82,West,268,0.0,0.0,74,0.00,,OVC060,0.01,VWS V14.01,2013-10-19 18:48:00,
2013-10-19 14:53:00,77.9,68.9,29.82,West,268,0.0,1.0,74,0.00,,OVC060,0.01,VWS V14.01,2013-10-19 18:53:00,
2013-10-19 14:58:00,78.2,68.4,29.82,NW,316,0.0,4.0,72,0.00,,OVC060,0.01,VWS V14.01,2013-10-19 18:58:00,
2013-10-19 15:00:00,78.2,68.8,29.83,West,265,0.0,4.0,73,0.00,,OVC060,0.01,VWS V14.01,2013-10-19 19:00:00,
2013-10-19 15:03:00,78.2,68.8,29.83,West,266,0.0,0.0,73,0.00,,OVC060,0.01,VWS V14.01,2013-10-19 19:03:00,
2013-10-19 15:08:00,78.1,68.8,29.83,WNW,295,0.0,2.0,73,0.00,,OVC060,0.01,VWS V14.01,2013-10-19 19:08:00,
2013-10-19 15:13:00,77.9,68.6,29.83,WNW,294,0.0,2.0,73,0.00,,OVC060,0.01,VWS V14.01,2013-10-19 19:13:00,
2013-10-19 15:15:00,77.8,68.5,29.83,North,350,0.0,3.0,73,0.00,,OVC060,0.01,VWS V14.01,2013-10-19 19:15:00,
2013-10-19 15:18:00,77.6,68.3,29.83,North,351,0.0,1.0,73,0.00,,OVC060,0.01,VWS V14.01,2013-10-19 19:18:00,
2013-10-19 15:23:00,77.4,68.5,29.83,North,351,0.0,1.0,74,0.00,,OVC060,0.01,VWS V14.01,2013-10-19 19:23:00,
2013-10-19 15:28:00,77.3,68.0,29.83,WNW,299,0.0,1.0,73,0.00,,OVC060,0.01,VWS V14.01,2013-10-19 19:28:00,
2013-10-19 15:30:00,77.3,68.0,29.83,WNW,299,0.0,1.0,73,0.00,,OVC060,0.01,VWS V14.01,2013-10-19 19:30:00,
2013-10-19 15:33:00,77.3,67.6,29.83,WNW,299,0.0,1.0,72,0.00,,OVC060,0.01,VWS V14.01,2013-10-19 19:33:00,
2013-10-19 15:38:00,77.2,67.5,29.83,South,183,0.0,2.0,72,0.00,,OVC060,0.01,VWS V14.01,2013-10-19 19:38:00,
2013-10-19 15:43:00,77.1,67.4,29.83,SSW,210,0.0,2.0,72,0.00,,OVC060,0.01,VWS V14.01,2013-10-19 19:43:00,
2013-10-19 15:45:00,77.1,67.8,29.83,SSW,210,0.0,2.0,73,0.00,,OVC060,0.01,VWS V14.01,2013-10-19 19:45:00,
2013-10-19 15:48:00,77.0,68.1,29.83,SSW,210,0.0,0.0,74,0.00,,OVC060,0.01,VWS V14.01,2013-10-19 19:48:00,
2013-10-19 15:53:00,76.9,67.6,29.82,SSW,210,0.0,0.0,73,0.00,,OVC060,0.01,VWS V14.01,2013-10-19 19:53:00,
2013-10-19 15:58:00,76.7,67.0,29.83,SSW,209,0.0,0.0,72,0.00,,OVC060,0.01,VWS V14.01,2013-10-19 19:58:00,
2013-10-19 16:00:00,76.6,66.5,29.83,SSW,209,0.0,0.0,71,0.00,,OVC060,0.01,VWS V14.01,2013-10-19 20:00:00,
2013-10-19 16:03:00,76.6,66.9,29.82,SSW,209,0.0,0.0,72,0.00,,OVC060,0.01,VWS V14.01,2013-10-19 20:03:00,
2013-10-19 16:08:00,76.7,66.2,29.83,SSW,192,0.0,1.0,70,0.00,,OVC060,0.01,VWS V14.01,2013-10-19 20:08:00,
2013-10-19 16:13:00,76.7,66.6,29.83,SSW,192,0.0,1.0,71,0.00,,OVC060,0.01,VWS V14.01,2013-10-19 20:13:00,
2013-10-19 16:15:00,76.7,67.0,29.83,SSW,192,0.0,1.0,72,0.00,,OVC060,0.01,VWS V14.01,2013-10-19 20:15:00,
2013-10-19 16:18:00,76.7,66.2,29.83,SE,140,0.0,4.0,70,0.00,,OVC060,0.01,VWS V14.01,2013-10-19 20:18:00,
2013-10-19 16:23:00,76.6,65.7,29.83,SE,140,0.0,4.0,69,0.00,,OVC060,0.01,VWS V14.01,2013-10-19 20:23:00,
2013-10-19 16:28:00,76.6,65.7,29.83,East,94,0.0,4.0,69,0.00,,OVC060,0.01,VWS V14.01,2013-10-19 20:28:00,
2013-10-19 16:30:00,76.6,65.3,29.83,SSW,196,0.0,4.0,68,0.00,,OVC060,0.01,VWS V14.01,2013-10-19 20:30:00,
2013-10-19 16:33:00,76.7,65.8,29.83,SSW,196,0.0,1.0,69,0.00,,OVC060,0.01,VWS V14.01,2013-10-19 20:33:00,
2013-10-19 16:38:00,76.8,65.4,29.83,ESE,107,0.0,2.0,68,0.00,,OVC060,0.01,VWS V14.01,2013-10-19 20:38:00,
2013-10-19 16:43:00,76.7,64.9,29.83,ENE,76,0.0,4.0,67,0.00,,OVC060,0.01,VWS V14.01,2013-10-19 20:43:00,
2013-10-19 16:45:00,76.7,65.8,29.83,ENE,77,0.0,4.0,69,0.00,,OVC060,0.01,VWS V14.01,2013-10-19 20:45:00,
2013-10-19 16:48:00,76.7,65.3,29.83,SSE,159,0.0,5.0,68,0.00,,OVC060,0.01,VWS V14.01,2013-10-19 20:48:00,
2013-10-19 16:53:00,76.6,64.8,29.83,SW,234,0.0,5.0,67,0.00,,OVC060,0.01,VWS V14.01,2013-10-19 20:53:00,
2013-10-19 16:58:00,76.4,64.6,29.83,SSE,157,0.0,5.0,67,0.00,,OVC060,0.01,VWS V14.01,2013-10-19 20:58:00,
2013-10-19 17:00:00,76.4,64.6,29.83,SSE,157,0.0,5.0,67,0.00,,OVC060,0.01,VWS V14.01,2013-10-19 21:00:00,
2013-10-19 17:03:00,76.3,65.0,29.83,South,170,0.0,0.0,68,0.00,,OVC060,0.01,VWS V14.01,2013-10-19 21:03:00,
2013-10-19 17:08:00,76.1,65.6,29.84,SSE,165,0.0,3.0,70,0.00,,OVC060,0.01,VWS V14.01,2013-10-19 21:08:00,
2013-10-19 17:14:00,75.8,64.9,29.84,South,178,0.0,4.0,69,0.00,,OVC060,0.01,VWS V14.01,2013-10-19 21:14:00,
2013-10-19 17:15:00,75.8,65.3,29.84,South,178,0.0,4.0,70,0.00,,OVC060,0.01,VWS V14.01,2013-10-19 21:15:00,
2013-10-19 17:19:00,75.6,65.1,29.83,SSE,152,0.0,0.0,70,0.00,,OVC060,0.01,VWS V14.01,2013-10-19 21:19:00,
2013-10-19 17:24:00,75.4,65.3,29.83,SSE,152,0.0,0.0,71,0.00,,OVC060,0.01,VWS V14.01,2013-10-19 21:24:00,
2013-10-19 17:29:00,75.2,65.6,29.83,SSE,152,0.0,0.0,72,0.00,,OVC060,0.01,VWS V14.01,2013-10-19 21:29:00,
2013-10-19 17:30:00,75.2,66.0,29.83,SSE,152,0.0,0.0,73,0.00,,OVC060,0.01,VWS V14.01,2013-10-19 21:30:00,
2013-10-19 17:34:00,75.0,65.4,29.83,SSE,152,0.0,0.0,72,0.00,,OVC060,0.01,VWS V14.01,2013-10-19 21:34:00,
2013-10-19 17:39:00,74.8,65.6,29.83,SSE,152,0.0,0.0,73,0.00,,OVC060,0.01,VWS V14.01,2013-10-19 21:39:00,
2013-10-19 17:44:00,74.6,65.4,29.83,SSE,152,0.0,1.0,73,0.00,,OVC060,0.01,VWS V14.01,2013-10-19 21:44:00,
2013-10-19 17:45:00,74.5,65.7,29.83,SSE,152,0.0,1.0,74,0.00,,OVC060,0.01,VWS V14.01,2013-10-19 21:45:00,
2013-10-19 17:49:00,74.4,65.6,29.83,SSE,153,0.0,0.0,74,0.00,,OVC060,0.01,VWS V14.01,2013-10-19 21:49:00,
2013-10-19 17:54:00,74.3,66.2,29.83,SSE,153,0.0,0.0,76,0.00,,OVC060,0.01,VWS V14.01,2013-10-19 21:54:00,
2013-10-19 17:59:00,74.1,66.4,29.83,SSE,153,0.0,0.0,77,0.00,,OVC060,0.01,VWS V14.01,2013-10-19 21:59:00,
2013-10-19 18:00:00,74.0,66.3,29.83,SSE,152,0.0,0.0,77,0.00,,OVC060,0.01,VWS V14.01,2013-10-19 22:00:00,
2013-10-19 18:04:00,73.8,66.2,29.83,SSE,152,0.0,0.0,77,0.00,,OVC060,0.01,VWS V14.01,2013-10-19 22:04:00,
2013-10-19 18:09:00,73.5,64.7,29.83,SSE,153,0.0,0.0,74,0.00,,OVC060,0.01,VWS V14.01,2013-10-19 22:09:00,
2013-10-19 18:14:00,73.2,64.4,29.83,SSE,153,0.0,1.0,74,0.00,,OVC060,0.01,VWS V14.01,2013-10-19 22:14:00,
2013-10-19 18:15:00,73.1,64.3,29.83,SSE,153,0.0,1.0,74,0.00,,OVC060,0.01,VWS V14.01,2013-10-19 22:15:00,
2013-10-19 18:19:00,73.0,63.8,29.83,SSE,152,0.0,0.0,73,0.00,,OVC060,0.01,VWS V14.01,2013-10-19 22:19:00,
2013-10-19 18:24:00,72.8,63.7,29.84,SSE,153,0.0,0.0,73,0.00,,OVC060,0.01,VWS V14.01,2013-10-19 22:24:00,
2013-10-19 18:29:00,72.5,63.4,29.84,SSE,153,0.0,0.0,73,0.00,,OVC060,0.01,VWS V14.01,2013-10-19 22:29:00,
2013-10-19 18:30:00,72.4,63.3,29.84,SSE,153,0.0,0.0,73,0.00,,OVC060,0.01,VWS V14.01,2013-10-19 22:30:00,
2013-10-19 18:34:00,72.2,63.1,29.84,SSE,156,0.0,0.0,73,0.00,,OVC060,0.01,VWS V14.01,2013-10-19 22:34:00,
2013-10-19 18:39:00,71.9,62.4,29.84,SSE,156,0.0,0.0,72,0.00,,OVC060,0.01,VWS V14.01,2013-10-19 22:39:00,
2013-10-19 18:44:00,71.5,62.4,29.83,SSE,156,0.0,0.0,73,0.00,,OVC060,0.01,VWS V14.01,2013-10-19 22:44:00,
2013-10-19 18:45:00,71.3,61.4,29.83,SSE,156,0.0,0.0,71,0.00,,OVC060,0.01,VWS V14.01,2013-10-19 22:45:00,
2013-10-19 18:49:00,71.1,61.6,29.83,SSE,156,0.0,0.0,72,0.00,,OVC060,0.01,VWS V14.01,2013-10-19 22:49:00,
2013-10-19 18:54:00,70.8,60.9,29.82,SSE,156,0.0,0.0,71,0.00,,OVC060,0.01,VWS V14.01,2013-10-19 22:54:00,
2013-10-19 18:59:00,70.6,60.3,29.82,SSE,156,0.0,0.0,70,0.00,,OVC060,0.01,VWS V14.01,2013-10-19 22:59:00,
2013-10-19 19:00:00,70.5,60.3,29.83,SSE,156,0.0,0.0,70,0.00,,OVC060,0.01,VWS V14.01,2013-10-19 23:00:00,
2013-10-19 19:04:00,70.4,61.7,29.83,SSE,156,0.0,0.0,74,0.00,,OVC060,0.01,VWS V14.01,2013-10-19 23:04:00,
2013-10-19 19:09:00,70.2,61.5,29.82,SSE,156,0.0,0.0,74,0.00,,OVC060,0.01,VWS V14.01,2013-10-19 23:09:00,
2013-10-19 19:14:00,70.0,61.7,29.83,SSE,156,0.0,0.0,75,0.00,,OVC060,0.01,VWS V14.01,2013-10-19 23:14:00,
2013-10-19 19:15:00,69.9,61.6,29.83,SSE,156,0.0,0.0,75,0.00,,OVC060,0.01,VWS V14.01,2013-10-19 23:15:00,
2013-10-19 19:19:00,69.8,61.9,29.84,SSE,156,0.0,0.0,76,0.00,,OVC060,0.01,VWS V14.01,2013-10-19 23:19:00,
2013-10-19 19:24:00,69.5,62.0,29.84,SSE,156,0.0,0.0,77,0.00,,OVC060,0.01,VWS V14.01,2013-10-19 23:24:00,
2013-10-19 19:29:00,69.3,62.5,29.84,SSE,156,0.0,0.0,79,0.00,,OVC060,0.01,VWS V14.01,2013-10-19 23:29:00,
2013-10-19 19:30:00,69.3,62.5,29.84,SSE,156,0.0,0.0,79,0.00,,OVC060,0.01,VWS V14.01,2013-10-19 23:30:00,
2013-10-19 19:34:00,69.1,62.0,29.85,SSE,156,0.0,0.0,78,0.00,,OVC060,0.01,VWS V14.01,2013-10-19 23:34:00,
2013-10-19 19:39:00,68.7,61.6,29.84,SSE,156,0.0,0.0,78,0.00,,OVC060,0.01,VWS V14.01,2013-10-19 23:39:00,
2013-10-19 19:44:00,68.5,61.0,29.85,SSE,156,0.0,0.0,77,0.00,,OVC060,0.01,VWS V14.01,2013-10-19 23:44:00,
2013-10-19 19:45:00,68.5,61.0,29.85,SSE,156,0.0,0.0,77,0.00,,OVC060,0.01,VWS V14.01,2013-10-19 23:45:00,
2013-10-19 19:49:00,68.4,61.3,29.86,SSE,156,0.0,0.0,78,0.00,,OVC060,0.01,VWS V14.01,2013-10-19 23:49:00,
2013-10-19 19:54:00,68.3,60.8,29.86,SSE,156,0.0,0.0,77,0.00,,OVC060,0.01,VWS V14.01,2013-10-19 23:54:00,
2013-10-19 19:59:00,68.3,60.1,29.86,SSE,156,0.0,0.0,75,0.00,,OVC060,0.01,VWS V14.01,2013-10-19 23:59:00,
2013-10-19 20:00:00,68.3,60.1,29.86,SSE,156,0.0,0.0,75,0.00,,OVC060,0.01,VWS V14.01,2013-10-20 00:00:00,
2013-10-19 20:04:00,68.3,60.1,29.86,SSE,156,0.0,0.0,75,0.00,,OVC060,0.01,VWS V14.01,2013-10-20 00:04:00,
2013-10-19 20:10:00,68.3,60.1,29.86,SSE,156,0.0,0.0,75,0.00,,OVC060,0.01,VWS V14.01,2013-10-20 00:10:00,
2013-10-19 20:15:00,68.3,59.7,29.86,SSE,156,0.0,0.0,74,0.00,,OVC060,0.01,VWS V14.01,2013-10-20 00:15:00,
2013-10-19 20:20:00,68.3,61.2,29.86,SSE,156,0.0,0.0,78,0.00,,OVC060,0.01,VWS V14.01,2013-10-20 00:20:00,
2013-10-19 20:25:00,68.0,60.2,29.87,SSE,156,0.0,0.0,76,0.00,,OVC060,0.01,VWS V14.01,2013-10-20 00:25:00,
2013-10-19 20:30:00,67.9,60.4,29.86,SSE,156,0.0,0.0,77,0.00,,OVC060,0.01,VWS V14.01,2013-10-20 00:30:00,
2013-10-19 20:35:00,67.7,60.2,29.87,SSE,156,0.0,0.0,77,0.00,,OVC060,0.01,VWS V14.01,2013-10-20 00:35:00,
2013-10-19 20:40:00,67.6,59.8,29.87,SSE,156,0.0,0.0,76,0.00,,OVC060,0.01,VWS V14.01,2013-10-20 00:40:00,
2013-10-19 20:45:00,67.6,60.1,29.87,SSE,156,0.0,0.0,77,0.00,,OVC060,0.01,VWS V14.01,2013-10-20 00:45:00,
2013-10-19 20:50:00,67.6,60.1,29.87,SSE,156,0.0,0.0,77,0.00,,OVC060,0.01,VWS V14.01,2013-10-20 00:50:00,
2013-10-19 20:55:00,67.5,59.7,29.87,SSE,157,0.0,0.0,76,0.00,,OVC060,0.01,VWS V14.01,2013-10-20 00:55:00,
2013-10-19 21:00:00,67.6,60.1,29.87,SSE,156,0.0,0.0,77,0.00,,OVC060,0.01,VWS V14.01,2013-10-20 01:00:00,
2013-10-19 21:05:00,67.6,60.1,29.87,SSE,157,0.0,0.0,77,0.00,,OVC060,0.01,VWS V14.01,2013-10-20 01:05:00,
2013-10-19 21:10:00,67.5,60.0,29.87,SSE,156,0.0,0.0,77,0.00,,OVC060,0.01,VWS V14.01,2013-10-20 01:10:00,
2013-10-19 21:15:00,67.4,59.6,29.87,SSE,157,0.0,1.0,76,0.00,,OVC060,0.01,VWS V14.01,2013-10-20 01:15:00,
2013-10-19 21:20:00,67.4,59.6,29.87,SSE,157,0.0,0.0,76,0.00,,OVC060,0.01,VWS V14.01,2013-10-20 01:20:00,
2013-10-19 21:25:00,67.3,59.8,29.88,SSE,157,0.0,0.0,77,0.00,,OVC060,0.01,VWS V14.01,2013-10-20 01:25:00,
2013-10-19 21:30:00,67.2,59.8,29.88,SSE,157,0.0,0.0,77,0.00,,OVC060,0.01,VWS V14.01,2013-10-20 01:30:00,
2013-10-19 21:35:00,67.1,59.3,29.88,SSE,156,0.0,0.0,76,0.00,,OVC060,0.01,VWS V14.01,2013-10-20 01:35:00,
2013-10-19 21:40:00,67.0,58.8,29.88,WNW,301,0.0,5.0,75,0.00,,OVC060,0.01,VWS V14.01,2013-10-20 01:40:00,
2013-10-19 21:45:00,67.0,58.5,29.88,WNW,300,0.0,5.0,74,0.00,,OVC060,0.01,VWS V14.01,2013-10-20 01:45:00,
2013-10-19 21:50:00,66.9,58.3,29.87,WNW,301,0.0,0.0,74,0.00,,OVC060,0.01,VWS V14.01,2013-10-20 01:50:00,
2013-10-19 21:55:00,66.8,57.9,29.88,WNW,300,0.0,1.0,73,0.00,,OVC060,0.01,VWS V14.01,2013-10-20 01:55:00,
2013-10-19 22:00:00,66.8,58.6,29.87,WNW,301,0.0,1.0,75,0.00,,OVC060,0.01,VWS V14.01,2013-10-20 02:00:00,
2013-10-19 22:05:00,66.6,58.4,29.88,WNW,301,0.0,0.0,75,0.00,,OVC060,0.01,VWS V14.01,2013-10-20 02:05:00,
2013-10-19 22:10:00,66.5,58.0,29.88,WNW,300,0.0,0.0,74,0.00,,OVC060,0.01,VWS V14.01,2013-10-20 02:10:00,
2013-10-19 22:15:00,66.3,58.2,29.88,WNW,301,0.0,0.0,75,0.00,,OVC060,0.01,VWS V14.01,2013-10-20 02:15:00,
2013-10-19 22:20:00,66.3,58.9,29.88,WNW,301,0.0,0.0,77,0.00,,OVC060,0.01,VWS V14.01,2013-10-20 02:20:00,
2013-10-19 22:25:00,66.2,58.8,29.88,WNW,301,0.0,0.0,77,0.00,,OVC060,0.01,VWS V14.01,2013-10-20 02:25:00,
2013-10-19 22:30:00,66.1,58.7,29.88,WNW,300,0.0,0.0,77,0.00,,OVC060,0.01,VWS V14.01,2013-10-20 02:30:00,
2013-10-19 22:35:00,65.9,58.5,29.88,WNW,301,0.0,0.0,77,0.00,,OVC060,0.01,VWS V14.01,2013-10-20 02:35:00,
2013-10-19 22:40:00,65.8,58.4,29.88,WNW,301,0.0,0.0,77,0.00,,OVC060,0.01,VWS V14.01,2013-10-20 02:40:00,
2013-10-19 22:45:00,65.6,58.6,29.89,WNW,301,0.0,0.0,78,0.00,,OVC060,0.01,VWS V14.01,2013-10-20 02:45:00,
2013-10-19 22:50:00,65.5,58.1,29.89,WNW,301,0.0,0.0,77,0.00,,OVC060,0.01,VWS V14.01,2013-10-20 02:50:00,
2013-10-19 22:55:00,65.3,58.3,29.88,WNW,300,0.0,0.0,78,0.00,,OVC060,0.01,VWS V14.01,2013-10-20 02:55:00,
2013-10-19 23:00:00,65.2,57.5,29.88,WNW,300,0.0,0.0,76,0.00,,OVC060,0.01,VWS V14.01,2013-10-20 03:00:00,
2013-10-19 23:05:00,65.0,57.3,29.88,WNW,301,0.0,0.0,76,0.00,,OVC060,0.01,VWS V14.01,2013-10-20 03:05:00,
2013-10-19 23:11:00,64.9,57.2,29.89,WNW,301,0.0,0.0,76,0.00,,OVC060,0.01,VWS V14.01,2013-10-20 03:11:00,
2013-10-19 23:15:00,64.8,56.7,29.89,WNW,300,0.0,0.0,75,0.00,,OVC060,0.01,VWS V14.01,2013-10-20 03:15:00,
2013-10-19 23:16:00,64.8,56.7,29.88,WNW,301,0.0,0.0,75,0.00,,OVC060,0.01,VWS V14.01,2013-10-20 03:16:00,
2013-10-19 23:21:00,64.7,56.6,29.88,WNW,300,0.0,0.0,75,0.00,,OVC060,0.01,VWS V14.01,2013-10-20 03:21:00,
2013-10-19 23:26:00,64.6,56.9,29.89,WNW,301,0.0,0.0,76,0.00,,OVC060,0.01,VWS V14.01,2013-10-20 03:26:00,
2013-10-19 23:30:00,64.6,57.6,29.89,WNW,301,0.0,0.0,78,0.00,,OVC060,0.01,VWS V14.01,2013-10-20 03:30:00,
2013-10-19 23:31:00,64.6,57.6,29.89,WNW,300,0.0,0.0,78,0.00,,OVC060,0.01,VWS V14.01,2013-10-20 03:31:00,
2013-10-19 23:36:00,64.6,58.3,29.89,WNW,301,0.0,0.0,80,0.00,,OVC060,0.01,VWS V14.01,2013-10-20 03:36:00,
2013-10-19 23:41:00,64.5,57.5,29.89,WNW,300,0.0,0.0,78,0.00,,OVC060,0.01,VWS V14.01,2013-10-20 03:41:00,
2013-10-19 23:45:00,64.4,57.4,29.89,WNW,301,0.0,0.0,78,0.00,,OVC060,0.01,VWS V14.01,2013-10-20 03:45:00,
2013-10-19 23:46:00,64.4,57.4,29.89,WNW,300,0.0,0.0,78,0.00,,OVC060,0.01,VWS V14.01,2013-10-20 03:46:00,
2013-10-19 23:51:00,64.3,57.7,29.89,WNW,301,0.0,0.0,79,0.00,,OVC060,0.01,VWS V14.01,2013-10-20 03:51:00,
2013-10-19 23:56:00,64.4,58.1,29.89,WNW,300,0.0,0.0,80,0.00,,OVC060,0.01,VWS V14.01,2013-10-20 03:56:00,